Regional Weather Roundup
Issued by NWS

Home | Current Version | Previous Version | Text Only | Print | Product List | Glossary On
Versions: 1 2 3 4 5 6 7 8 9 10 11 12 13 14 15 16 17 18 19 20 21 22 23 24 25 26 27 28 29 30 31 32 33 34 35 36 37 38 39 40 41 42 43 44 45 46 47 48 49 50
000
ASUS43 KLMK 241802
RWRKY
KENTUCKY REGIONAL WEATHER ROUNDUP
NATIONAL WEATHER SERVICE LOUISVILLE KY
200 PM EDT THU JUL 24 2014

NOTE "FAIR" INDICATES FEW OR NO CLOUDS BELOW 12,000 FEET
WITH NO SIGNIFICANT WEATHER AND/OR OBSTRUCTIONS TO VISIBILITY.

KYZ001>023-026-027-061>063-070>075-241900-
WESTERN AND SOUTH CENTRAL KENTUCKY

CITY           SKY/WX    TMP DP  RH WIND       PRES   REMARKS
PADUCAH        MOSUNNY   80  64  58 N10       30.06F
HENDERSON      PTSUNNY   75  59  57 N8        30.05S
OWENSBORO      MOSUNNY   78  57  48 N12       30.04F
HOPKINSVILLE   PTSUNNY   79  64  59 N8        30.03F
BOWLING GREEN  MOSUNNY   82  59  45 NE8       30.01F
GLASGOW        CLOUDY    79  60  51 NE7       30.01F
$$

KYZ024-025-028>034-038-045-046-053-241900-
NORTH CENTRAL KENTUCKY

CITY           SKY/WX    TMP DP  RH WIND       PRES   REMARKS
LOUISVILLE/SDF MOSUNNY   79  55  43 N12G20    30.04F
LOUISVILLE/LOU MOSUNNY   77  53  43 NE8       30.05F
FORT KNOX      MOSUNNY   77  55  46 N14G21    30.03F
$$

KYZ035>037-039>044-047>052-055>060-089>105-241900-
NORTHEAST KENTUCKY

CITY           SKY/WX    TMP DP  RH WIND       PRES   REMARKS
LEXINGTON      PTSUNNY   76  60  57 N12       30.05S
COVINGTON      MOSUNNY   72  53  51 N12       30.06F
FRANKFORT      PTSUNNY   73  55  53 NE9G20    30.05S
$$

KYZ054-064>069-076>088-106>120-241900-
SOUTHEAST KENTUCKY

CITY           SKY/WX    TMP DP  RH WIND       PRES   REMARKS
JACKSON        CLOUDY    64  62  93 VRB5      30.02F
LONDON         CLOUDY    70  65  84 NW12      30.02S
SOMERSET       NOT AVBL
MIDDLESBORO    CLOUDY    80  69  69 NW12      29.98F
MONTICELLO     CLOUDY    72  68  87 N7        30.04S
$$



USA.gov is the U.S. government's official web portal to all federal, state and local government web resources and services.